QPF
0.04 0.04 0.06 0.06 0.05 0.04 0.05 0.07 0.10 0.06 0.04 0.04 0.06 0.05 0.04 0.03 0.05 0.09 0.10 0.09 0.09 0.09 0.09 0.08 0.07 0.06 0.06 0.07 0.10 0.11 0.11 0.10 0.10 0.09 0.08 0.09 0.06 0.05 0.04 0.05 0.05 0.03 0.04
0.03 0.03 0.05 0.04 0.05 0.08 0.07 0.09 0.13 0.07 0.03 0.03 0.05 0.06 0.06 0.07 0.09 0.12 0.11 0.07 0.04 0.04 0.06 0.07 0.07 0.06 0.06 0.06 0.08 0.09 0.10 0.09 0.09 0.08 0.06 0.06 0.07 0.06 0.06 0.05 0.05 0.03 0.04
0.02 0.03 0.03 0.03 0.03 0.07 0.10 0.11 0.12 0.06 0.04 0.04 0.05 0.05 0.05 0.05 0.06 0.06 0.06 0.03 0.02 0.02 0.04 0.04 0.06 0.07 0.08 0.07 0.08 0.09 0.10 0.08 0.07 0.07 0.06 0.05 0.06 0.07 0.08 0.08 0.07 0.05 0.04
0.02 0.02 0.02 0.02 0.03 0.06 0.12 0.11 0.09 0.05 0.05 0.05 0.05 0.05 0.04 0.04 0.06 0.07 0.04 0.03 0.03 0.03 0.03 0.04 0.04 0.05 0.08 0.11 0.11 0.11 0.10 0.09 0.08 0.06 0.03 0.03 0.04 0.07 0.11 0.11 0.08 0.07 0.05
0.02 0.02 0.02 0.02 0.02 0.09 0.17 0.16 0.07 0.06 0.07 0.06 0.05 0.05 0.04 0.04 0.05 0.06 0.05 0.05 0.07 0.08 0.08 0.08 0.08 0.07 0.07 0.11 0.12 0.13 0.09 0.09 0.09 0.07 0.03 0.04 0.06 0.07 0.10 0.10 0.10 0.08 0.06
0.03 0.02 0.02 0.03 0.07 0.16 0.16 0.18 0.17 0.12 0.10 0.07 0.04 0.03 0.03 0.04 0.06 0.07 0.07 0.09 0.12 0.14 0.15 0.14 0.13 0.10 0.09 0.10 0.11 0.13 0.11 0.10 0.08 0.06 0.06 0.07 0.06 0.06 0.08 0.09 0.09 0.09 0.10
0.03 0.03 0.02 0.04 0.09 0.15 0.20 0.19 0.20 0.20 0.15 0.09 0.05 0.04 0.04 0.05 0.06 0.08 0.09 0.11 0.10 0.07 0.07 0.10 0.11 0.11 0.10 0.10 0.11 0.12 0.15 0.14 0.09 0.06 0.07 0.06 0.04 0.05 0.07 0.09 0.10 0.12 0.15
0.03 0.03 0.04 0.03 0.05 0.10 0.12 0.11 0.13 0.14 0.12 0.09 0.05 0.04 0.05 0.04 0.05 0.06 0.07 0.10 0.08 0.06 0.04 0.05 0.09 0.13 0.12 0.09 0.09 0.11 0.17 0.18 0.16 0.08 0.05 0.04 0.06 0.08 0.09 0.10 0.10 0.10 0.13
0.04 0.03 0.03 0.03 0.03 0.03 0.04 0.06 0.08 0.10 0.10 0.07 0.05 0.04 0.04 0.04 0.04 0.05 0.07 0.14 0.08 0.03 0.03 0.05 0.09 0.13 0.12 0.09 0.09 0.12 0.15 0.16 0.13 0.08 0.06 0.05 0.06 0.08 0.10 0.11 0.12 0.11 0.12
0.05 0.04 0.04 0.04 0.04 0.03 0.03 0.04 0.04 0.05 0.05 0.04 0.04 0.05 0.05 0.05 0.06 0.06 0.08 0.17 0.17 0.08 0.06 0.08 0.12 0.12 0.10 0.09 0.09 0.11 0.12 0.13 0.10 0.06 0.07 0.07 0.07 0.08 0.10 0.12 0.12 0.12 0.10
0.06 0.05 0.05 0.04 0.04 0.03 0.03 0.03 0.02 0.03 0.03 0.04 0.04 0.04 0.04 0.03 0.04 0.06 0.11 0.16 0.24 0.16 0.12 0.14 0.15 0.11 0.08 0.07 0.09 0.10 0.09 0.07 0.04 0.04 0.05 0.07 0.09 0.08 0.08 0.08 0.07 0.07 0.06
0.07 0.07 0.06 0.04 0.03 0.02 0.01 0.02 0.01 0.02 0.03 0.03 0.04 0.03 0.02 0.02 0.04 0.04 0.06 0.09 0.20 0.24 0.21 0.18 0.13 0.09 0.07 0.07 0.08 0.08 0.06 0.05 0.04 0.05 0.05 0.06 0.08 0.09 0.11 0.10 0.07 0.06 0.07
0.02 0.03 0.05 0.05 0.04 0.02 0.01 0.01 0.01 0.02 0.03 0.04 0.04 0.02 0.01 0.01 0.02 0.03 0.05 0.05 0.11 0.19 0.20 0.15 0.13 0.10 0.08 0.09 0.08 0.06 0.06 0.07 0.06 0.08 0.08 0.08 0.08 0.10 0.13 0.11 0.07 0.06 0.06
0.02 0.01 0.01 0.02 0.02 0.02 0.02 0.02 0.02 0.02 0.02 0.02 0.03 0.03 0.02 0.02 0.02 0.03 0.04 0.06 0.07 0.10 0.12 0.12 0.12 0.09 0.08 0.08 0.06 0.06 0.05 0.05 0.08 0.07 0.10 0.09 0.11 0.17 0.14 0.11 0.09 0.07 0.06
0.02 0.01 0.01 0.01 0.01 0.02 0.02 0.02 0.02 0.02 0.02 0.02 0.02 0.02 0.02 0.02 0.02 0.02 0.03 0.05 0.06 0.07 0.07 0.07 0.07 0.07 0.07 0.06 0.05 0.06 0.05 0.06 0.07 0.05 0.06 0.08 0.09 0.11 0.11 0.10 0.10 0.08 0.08
0.02 0.01 0.01 0.01 0.01 0.01 0.01 0.01 0.01 0.02 0.03 0.02 0.02 0.02 0.01 0.02 0.02 0.02 0.02 0.03 0.04 0.05 0.05 0.04 0.03 0.04 0.05 0.05 0.05 0.05 0.07 0.09 0.10 0.08 0.05 0.07 0.09 0.07 0.09 0.11 0.11 0.10 0.11
0.02 0.01 0.01 0.01 0.02 0.02 0.02 0.01 0.01 0.02 0.02 0.01 0.02 0.02 0.02 0.01 0.02 0.02 0.03 0.03 0.03 0.04 0.04 0.03 0.02 0.02 0.03 0.04 0.05 0.05 0.05 0.06 0.08 0.09 0.07 0.10 0.09 0.07 0.07 0.09 0.10 0.09 0.09
0.01 0.01 0.01 0.02 0.03 0.03 0.03 0.03 0.02 0.02 0.02 0.01 0.01 0.02 0.02 0.02 0.02 0.03 0.03 0.03 0.03 0.02 0.02 0.03 0.04 0.04 0.04 0.04 0.04 0.05 0.04 0.04 0.05 0.06 0.06 0.08 0.08 0.05 0.05 0.06 0.08 0.08 0.09
0.01 0.01 0.02 0.03 0.03 0.03 0.03 0.03 0.04 0.04 0.04 0.03 0.01 0.01 0.01 0.02 0.02 0.02 0.02 0.03 0.02 0.02 0.02 0.03 0.04 0.04 0.04 0.05 0.04 0.04 0.04 0.04 0.04 0.05 0.04 0.05 0.06 0.05 0.05 0.05 0.06 0.07 0.07
0.01 0.01 0.02 0.02 0.02 0.02 0.03 0.03 0.05 0.06 0.06 0.05 0.03 0.03 0.03 0.04 0.03 0.03 0.03 0.02 0.02 0.02 0.02 0.04 0.05 0.04 0.04 0.05 0.04 0.04 0.04 0.05 0.06 0.06 0.04 0.04 0.06 0.06 0.06 0.05 0.06 0.07 0.08
0.02 0.02 0.02 0.01 0.01 0.01 0.02 0.03 0.04 0.06 0.07 0.07 0.07 0.09 0.07 0.05 0.03 0.03 0.03 0.02 0.02 0.02 0.02 0.04 0.04 0.03 0.03 0.05 0.06 0.04 0.04 0.04 0.04 0.04 0.04 0.04 0.04 0.06 0.07 0.07 0.06 0.08 0.12
0.03 0.03 0.02 0.01 0.01 0.01 0.01 0.02 0.03 0.05 0.05 0.05 0.08 0.08 0.06 0.05 0.04 0.04 0.04 0.03 0.03 0.04 0.04 0.05 0.07 0.03 0.03 0.05 0.06 0.05 0.04 0.04 0.04 0.03 0.04 0.05 0.05 0.06 0.07 0.06 0.06 0.06 0.07
0.05 0.02 0.02 0.01 0.01 0.01 0.01 0.01 0.02 0.04 0.04 0.03 0.04 0.04 0.03 0.03 0.04 0.05 0.05 0.04 0.05 0.05 0.04 0.04 0.06 0.04 0.03 0.03 0.04 0.05 0.04 0.03 0.03 0.03 0.03 0.04 0.04 0.04 0.06 0.05 0.06 0.05 0.05
0.06 0.03 0.01 0.01 0.01 0.01 0.01 0.01 0.01 0.01 0.02 0.02 0.02 0.03 0.03 0.03 0.05 0.07 0.06 0.05 0.04 0.05 0.04 0.03 0.03 0.03 0.02 0.02 0.03 0.04 0.03 0.04 0.03 0.03 0.04 0.05 0.03 0.03 0.04 0.05 0.06 0.06 0.06
0.03 0.02 0.01 0.02 0.02 0.02 0.01 0.01 0.01 0.01 0.02 0.02 0.02 0.02 0.02 0.02 0.05 0.06 0.05 0.04 0.03 0.03 0.03 0.03 0.03 0.03 0.02 0.02 0.02 0.04 0.04 0.05 0.05 0.04 0.03 0.06 0.06 0.05 0.03 0.04 0.04 0.05 0.06
0.02 0.01 0.01 0.02 0.01 0.01 0.00 0.01 0.01 0.02 0.02 0.02 0.02 0.01 0.01 0.02 0.03 0.03 0.03 0.03 0.03 0.03 0.02 0.02 0.02 0.02 0.02 0.02 0.02 0.03 0.03 0.03 0.04 0.03 0.02 0.03 0.05 0.05 0.03 0.04 0.04 0.02 0.02
MSLP
1005.27 1004.14 1003.37 1002.99 1002.90 1002.95 1002.99 1002.86 1002.50 1001.89 1001.11 1000.28 999.53 998.97 998.64 998.53 998.59 998.73 998.88 999.00 999.07 999.14 999.24 999.41 999.68 1000.03 1000.45 1000.88 1001.32 1001.74 1002.17 1002.64 1003.20 1003.86 1004.64 1005.50 1006.39 1007.24 1008.01 1008.65 1009.18 1009.62 1010.02
1004.99 1003.97 1003.30 1002.97 1002.88 1002.86 1002.76 1002.46 1001.90 1001.13 1000.24 999.39 998.69 998.24 998.04 998.06 998.20 998.36 998.47 998.50 998.46 998.43 998.47 998.63 998.93 999.36 999.86 1000.37 1000.84 1001.25 1001.64 1002.04 1002.53 1003.16 1003.94 1004.85 1005.82 1006.79 1007.67 1008.43 1009.05 1009.54 1009.98
1004.69 1003.79 1003.22 1002.95 1002.84 1002.75 1002.52 1002.05 1001.35 1000.47 999.54 998.72 998.11 997.76 997.64 997.67 997.73 997.73 997.59 997.34 997.04 996.81 996.74 996.91 997.34 997.98 998.73 999.48 1000.16 1000.71 1001.15 1001.55 1002.00 1002.57 1003.31 1004.22 1005.24 1006.29 1007.28 1008.14 1008.86 1009.43 1009.92
1004.40 1003.64 1003.17 1002.94 1002.81 1002.63 1002.27 1001.68 1000.87 999.95 999.04 998.29 997.76 997.46 997.31 997.19 996.96 996.54 995.90 995.13 994.38 993.82 993.60 993.82 994.49 995.51 996.73 997.96 999.06 999.95 1000.61 1001.12 1001.59 1002.12 1002.82 1003.69 1004.71 1005.79 1006.86 1007.81 1008.62 1009.29 1009.85
1004.20 1003.56 1003.17 1002.96 1002.79 1002.52 1002.05 1001.35 1000.49 999.57 998.72 998.05 997.57 997.24 996.92 996.44 995.69 994.59 993.20 991.68 990.29 989.29 988.88 989.19 990.21 991.79 993.69 995.65 997.42 998.86 999.94 1000.70 1001.27 1001.82 1002.47 1003.29 1004.27 1005.36 1006.46 1007.49 1008.38 1009.13 1009.75
1004.17 1003.62 1003.28 1003.06 1002.82 1002.45 1001.87 1001.09 1000.19 999.30 998.52 997.92 997.46 997.00 996.37 995.39 993.91 991.93 989.58 987.14 984.97 983.43 982.81 983.24 984.69 986.97 989.73 992.60 995.24 997.43 999.07 1000.21 1001.00 1001.62 1002.26 1003.03 1003.96 1005.03 1006.14 1007.21 1008.16 1008.97 1009.66
1004.36 1003.88 1003.56 1003.29 1002.95 1002.45 1001.75 1000.89 999.97 999.11 998.40 997.85 997.34 996.70 995.69 994.08 991.78 988.82 985.41 981.98 978.98 976.88 976.03 976.60 978.52 981.55 985.24 989.10 992.70 995.73 998.04 999.66 1000.73 1001.48 1002.13 1002.87 1003.75 1004.78 1005.89 1006.99 1007.98 1008.84 1009.57
1004.79 1004.35 1004.01 1003.67 1003.21 1002.56 1001.72 1000.77 999.82 998.98 998.32 997.79 997.23 996.38 994.96 992.75 989.64 985.74 981.35 976.98 973.21 970.59 969.53 970.22 972.58 976.30 980.86 985.65 990.17 994.01 996.98 999.07 1000.44 1001.34 1002.04 1002.76 1003.61 1004.61 1005.71 1006.82 1007.84 1008.74 1009.49
1005.42 1005.00 1004.63 1004.20 1003.60 1002.80 1001.82 1000.76 999.75 998.91 998.28 997.76 997.14 996.12 994.38 991.68 987.94 983.30 978.14 973.04 968.67 965.65 964.43 965.21 967.90 972.14 977.36 982.88 988.10 992.57 996.05 998.52 1000.15 1001.18 1001.93 1002.65 1003.48 1004.47 1005.57 1006.69 1007.74 1008.66 1009.42
1006.15 1005.75 1005.36 1004.84 1004.12 1003.17 1002.05 1000.88 999.80 998.94 998.31 997.79 997.15 996.04 994.12 991.15 987.06 982.00 976.40 970.90 966.20 962.95 961.63 962.46 965.32 969.84 975.41 981.30 986.89 991.70 995.46 998.13 999.89 1000.99 1001.77 1002.50 1003.33 1004.32 1005.43 1006.57 1007.65 1008.59 1009.36
1006.89 1006.53 1006.13 1005.56 1004.74 1003.67 1002.43 1001.15 1000.00 999.09 998.44 997.94 997.31 996.22 994.30 991.32 987.21 982.13 976.50 970.98 966.26 963.00 961.67 962.48 965.32 969.83 975.38 981.25 986.81 991.59 995.32 997.98 999.71 1000.79 1001.56 1002.29 1003.12 1004.13 1005.27 1006.45 1007.56 1008.51 1009.30
1007.54 1007.24 1006.86 1006.27 1005.41 1004.27 1002.95 1001.59 1000.36 999.40 998.72 998.23 997.65 996.67 994.93 992.20 988.39 983.67 978.42 973.26 968.84 965.78 964.53 965.28 967.93 972.13 977.29 982.74 987.89 992.29 995.70 998.10 999.66 1000.63 1001.35 1002.05 1002.89 1003.93 1005.10 1006.31 1007.45 1008.43 1009.22
1008.05 1007.81 1007.48 1006.92 1006.07 1004.93 1003.58 1002.18 1000.90 999.88 999.17 998.67 998.16 997.35 995.92 993.63 990.39 986.34 981.80 977.31 973.46 970.79 969.70 970.36 972.67 976.33 980.81 985.52 989.93 993.66 996.52 998.50 999.77 1000.56 1001.18 1001.85 1002.69 1003.74 1004.94 1006.17 1007.33 1008.32 1009.12
1008.40 1008.22 1007.95 1007.47 1006.69 1005.60 1004.29 1002.90 1001.60 1000.53 999.77 999.25 998.80 998.17 997.09 995.34 992.82 989.62 986.01 982.41 979.30 977.15 976.28 976.83 978.72 981.69 985.31 989.08 992.57 995.48 997.66 999.13 1000.04 1000.63 1001.14 1001.76 1002.59 1003.64 1004.83 1006.06 1007.20 1008.19 1008.99
1008.63 1008.49 1008.29 1007.89 1007.21 1006.25 1005.04 1003.72 1002.44 1001.35 1000.52 999.95 999.51 999.02 998.26 997.04 995.26 992.97 990.34 987.70 985.42 983.84 983.21 983.66 985.11 987.35 990.06 992.83 995.37 997.43 998.92 999.89 1000.48 1000.88 1001.29 1001.86 1002.66 1003.67 1004.82 1006.00 1007.09 1008.04 1008.82
1008.83 1008.68 1008.51 1008.19 1007.64 1006.83 1005.79 1004.60 1003.39 1002.29 1001.41 1000.75 1000.27 999.84 999.30 998.51 997.37 995.89 994.17 992.44 990.93 989.90 989.52 989.88 990.92 992.49 994.36 996.24 997.92 999.24 1000.17 1000.74 1001.08 1001.35 1001.70 1002.23 1002.97 1003.91 1004.95 1006.02 1007.01 1007.88 1008.61
1009.06 1008.85 1008.66 1008.40 1007.98 1007.34 1006.49 1005.48 1004.39 1003.34 1002.41 1001.66 1001.08 1000.62 1000.18 999.65 998.98 998.12 997.14 996.15 995.30 994.74 994.57 994.86 995.57 996.59 997.78 998.95 999.97 1000.76 1001.29 1001.61 1001.83 1002.05 1002.37 1002.86 1003.53 1004.34 1005.23 1006.13 1006.97 1007.71 1008.35
1009.37 1009.05 1008.80 1008.56 1008.23 1007.77 1007.14 1006.34 1005.42 1004.45 1003.51 1002.68 1001.98 1001.42 1000.95 1000.54 1000.12 999.67 999.20 998.74 998.37 998.16 998.16 998.40 998.86 999.48 1000.18 1000.87 1001.47 1001.93 1002.27 1002.51 1002.72 1002.96 1003.30 1003.75 1004.31 1004.96 1005.65 1006.33 1006.96 1007.54 1008.07
1009.78 1009.32 1008.96 1008.69 1008.43 1008.12 1007.70 1007.14 1006.42 1005.59 1004.70 1003.82 1003.00 1002.31 1001.74 1001.30 1000.97 1000.72 1000.53 1000.40 1000.33 1000.34 1000.44 1000.64 1000.93 1001.30 1001.71 1002.12 1002.51 1002.85 1003.16 1003.44 1003.73 1004.04 1004.40 1004.80 1005.24 1005.70 1006.16 1006.59 1006.99 1007.38 1007.77
1010.26 1009.64 1009.15 1008.81 1008.58 1008.40 1008.18 1007.85 1007.37 1006.72 1005.93 1005.06 1004.17 1003.36 1002.67 1002.14 1001.77 1001.56 1001.48 1001.49 1001.56 1001.68 1001.82 1001.98 1002.17 1002.39 1002.65 1002.95 1003.28 1003.64 1004.02 1004.41 1004.82 1005.21 1005.58 1005.92 1006.22 1006.47 1006.69 1006.87 1007.05 1007.25 1007.50
1010.75 1009.99 1009.37 1008.95 1008.71 1008.61 1008.55 1008.45 1008.20 1007.77 1007.13 1006.34 1005.46 1004.58 1003.80 1003.16 1002.71 1002.46 1002.37 1002.40 1002.51 1002.64 1002.77 1002.89 1003.02 1003.16 1003.36 1003.63 1003.98 1004.41 1004.89 1005.40 1005.90 1006.35 1006.72 1006.98 1007.13 1007.19 1007.18 1007.14 1007.12 1007.15 1007.27
1011.20 1010.33 1009.60 1009.10 1008.84 1008.78 1008.85 1008.92 1008.89 1008.68 1008.24 1007.59 1006.78 1005.92 1005.10 1004.40 1003.88 1003.56 1003.42 1003.42 1003.49 1003.59 1003.68 1003.75 1003.82 1003.92 1004.09 1004.36 1004.74 1005.22 1005.78 1006.36 1006.90 1007.36 1007.68 1007.84 1007.86 1007.75 1007.57 1007.36 1007.19 1007.10 1007.11
1011.54 1010.65 1009.85 1009.28 1008.98 1008.93 1009.07 1009.27 1009.42 1009.41 1009.16 1008.68 1008.01 1007.23 1006.45 1005.75 1005.21 1004.85 1004.67 1004.62 1004.64 1004.69 1004.73 1004.75 1004.77 1004.82 1004.95 1005.20 1005.57 1006.05 1006.61 1007.19 1007.71 1008.12 1008.36 1008.43 1008.34 1008.12 1007.83 1007.53 1007.27 1007.10 1007.04
1011.79 1010.92 1010.12 1009.51 1009.17 1009.11 1009.26 1009.53 1009.79 1009.93 1009.85 1009.54 1009.03 1008.38 1007.69 1007.06 1006.55 1006.19 1006.00 1005.92 1005.91 1005.92 1005.91 1005.88 1005.84 1005.83 1005.91 1006.09 1006.39 1006.81 1007.30 1007.80 1008.24 1008.56 1008.72 1008.71 1008.55 1008.28 1007.95 1007.62 1007.35 1007.16 1007.05
1011.95 1011.18 1010.43 1009.82 1009.45 1009.34 1009.47 1009.75 1010.04 1010.26 1010.30 1010.12 1009.75 1009.24 1008.67 1008.14 1007.69 1007.38 1007.21 1007.13 1007.10 1007.08 1007.04 1006.96 1006.87 1006.80 1006.80 1006.89 1007.09 1007.40 1007.76 1008.14 1008.46 1008.68 1008.76 1008.70 1008.52 1008.26 1007.96 1007.68 1007.44 1007.26 1007.13
1012.09 1011.47 1010.80 1010.22 1009.83 1009.68 1009.75 1009.97 1010.25 1010.46 1010.54 1010.44 1010.17 1009.77 1009.31 1008.87 1008.50 1008.25 1008.11 1008.04 1008.02 1007.99 1007.93 1007.82 1007.69 1007.57 1007.48 1007.48 1007.57 1007.74 1007.96 1008.20 1008.41 1008.53 1008.56 1008.48 1008.33 1008.13 1007.92 1007.72 1007.55 1007.40 1007.27
Thickness
5791 5795 5795 5795 5795 5795 5796 5796 5796 5796 5795 5794 5793 5792 5791 5790 5790 5789 5788 5787 5785 5784 5783 5783 5781 5780 5779 5778 5776 5775 5773 5773 5772 5770 5769 5768 5767 5766 5765 5764 5764 5763 5762
5796 5796 5796 5796 5796 5796 5796 5795 5795 5795 5794 5793 5793 5791 5790 5790 5789 5789 5788 5786 5785 5784 5783 5782 5781 5780 5778 5777 5775 5774 5773 5772 5771 5770 5769 5768 5767 5765 5764 5764 5763 5762 5761
5797 5797 5797 5797 5796 5796 5795 5795 5795 5794 5793 5793 5792 5791 5790 5790 5789 5789 5788 5787 5785 5784 5783 5782 5781 5780 5778 5777 5775 5773 5772 5771 5770 5769 5768 5768 5767 5765 5764 5763 5762 5761 5760
5798 5797 5797 5797 5796 5795 5795 5795 5794 5794 5793 5792 5792 5791 5790 5790 5789 5788 5788 5786 5785 5784 5783 5782 5781 5780 5778 5776 5775 5773 5772 5771 5770 5769 5768 5767 5766 5765 5764 5762 5762 5760 5759
5799 5798 5797 5797 5796 5796 5795 5794 5794 5793 5792 5791 5791 5791 5790 5789 5789 5788 5787 5786 5785 5784 5783 5782 5781 5779 5777 5776 5775 5773 5772 5771 5770 5769 5767 5766 5766 5765 5764 5763 5762 5760 5759
5799 5798 5797 5797 5797 5797 5795 5794 5793 5793 5792 5791 5790 5790 5789 5789 5788 5787 5786 5785 5784 5783 5782 5781 5780 5779 5777 5776 5775 5773 5772 5771 5770 5769 5767 5766 5766 5765 5764 5763 5762 5760 5759
5798 5798 5797 5797 5798 5798 5795 5793 5793 5792 5792 5791 5790 5789 5788 5788 5787 5786 5785 5784 5783 5783 5782 5781 5779 5778 5777 5776 5775 5774 5772 5771 5770 5769 5767 5766 5766 5765 5764 5763 5762 5761 5759
5799 5798 5797 5797 5796 5795 5794 5793 5792 5792 5791 5790 5789 5788 5788 5787 5786 5785 5784 5784 5783 5782 5782 5781 5779 5778 5777 5776 5775 5774 5773 5772 5770 5769 5768 5767 5766 5766 5765 5763 5762 5761 5760
5800 5798 5797 5796 5795 5795 5794 5793 5793 5792 5791 5790 5789 5788 5787 5786 5785 5785 5784 5782 5782 5783 5784 5782 5781 5779 5778 5777 5776 5775 5774 5772 5770 5769 5768 5767 5766 5766 5765 5764 5762 5760 5760
5798 5797 5796 5795 5795 5794 5794 5793 5792 5791 5790 5789 5788 5787 5786 5785 5784 5784 5783 5782 5782 5783 5783 5783 5782 5780 5779 5778 5776 5775 5774 5772 5770 5769 5768 5767 5766 5766 5765 5764 5762 5761 5760
5795 5795 5795 5794 5794 5793 5793 5792 5791 5790 5789 5788 5787 5786 5785 5783 5783 5782 5782 5781 5782 5783 5782 5782 5781 5779 5778 5777 5777 5775 5773 5772 5770 5769 5768 5767 5766 5766 5765 5764 5762 5760 5759
5792 5793 5795 5794 5793 5793 5793 5791 5790 5789 5787 5786 5785 5784 5783 5782 5782 5781 5781 5780 5780 5780 5779 5779 5778 5778 5777 5776 5776 5775 5772 5771 5770 5768 5767 5766 5766 5766 5765 5763 5762 5760 5759
5794 5795 5795 5795 5794 5793 5792 5790 5789 5787 5786 5785 5784 5783 5782 5781 5780 5780 5779 5779 5778 5777 5777 5776 5777 5776 5776 5775 5774 5773 5772 5770 5769 5768 5767 5766 5766 5765 5764 5763 5761 5759 5758
5795 5795 5796 5796 5794 5793 5792 5790 5788 5787 5786 5784 5784 5783 5781 5780 5779 5778 5777 5777 5777 5776 5774 5774 5774 5774 5774 5774 5773 5772 5771 5770 5768 5767 5767 5766 5765 5765 5764 5762 5761 5759 5758
5796 5796 5796 5796 5795 5793 5792 5790 5788 5787 5786 5784 5783 5782 5781 5779 5778 5778 5777 5776 5776 5775 5774 5773 5773 5772 5772 5771 5771 5771 5769 5769 5767 5767 5766 5766 5765 5765 5764 5762 5760 5759 5758
5797 5796 5797 5796 5795 5793 5791 5789 5787 5787 5785 5784 5783 5782 5781 5780 5779 5777 5776 5775 5775 5774 5774 5773 5772 5771 5770 5770 5769 5769 5768 5767 5766 5766 5765 5765 5764 5764 5762 5761 5759 5758 5757
5798 5798 5797 5796 5794 5791 5789 5788 5787 5786 5784 5783 5782 5782 5781 5780 5778 5777 5775 5774 5773 5773 5773 5772 5771 5770 5768 5768 5767 5766 5766 5766 5765 5765 5764 5763 5762 5762 5761 5759 5758 5757 5756
5799 5797 5797 5797 5793 5790 5789 5787 5786 5785 5784 5782 5781 5780 5779 5779 5778 5776 5774 5773 5772 5772 5771 5770 5768 5766 5765 5764 5764 5764 5764 5763 5763 5763 5762 5761 5761 5760 5759 5758 5757 5755 5754
5798 5796 5795 5795 5792 5790 5789 5787 5785 5783 5782 5781 5780 5779 5778 5777 5776 5775 5773 5771 5771 5770 5768 5768 5765 5764 5761 5761 5761 5762 5761 5761 5760 5761 5760 5759 5758 5757 5756 5756 5755 5753 5752
5798 5796 5794 5793 5791 5789 5787 5785 5782 5781 5779 5779 5778 5777 5776 5775 5774 5772 5771 5769 5768 5766 5765 5764 5762 5762 5760 5759 5760 5759 5758 5758 5758 5757 5757 5756 5755 5754 5753 5752 5752 5751 5750
5796 5793 5792 5790 5789 5787 5784 5780 5777 5775 5775 5775 5775 5775 5774 5773 5771 5770 5768 5767 5765 5763 5761 5761 5759 5757 5756 5756 5753 5750 5752 5754 5754 5754 5754 5753 5752 5752 5750 5749 5749 5748 5747
5793 5792 5790 5789 5788 5786 5783 5781 5778 5775 5773 5773 5773 5772 5771 5770 5769 5768 5765 5763 5761 5759 5758 5756 5755 5752 5752 5752 5747 5742 5738 5741 5747 5751 5750 5749 5749 5749 5747 5746 5745 5745 5744
5793 5791 5791 5788 5787 5785 5783 5780 5777 5773 5771 5768 5768 5767 5767 5767 5766 5764 5762 5760 5758 5756 5754 5753 5752 5749 5745 5747 5746 5740 5733 5729 5734 5741 5744 5745 5745 5744 5744 5744 5743 5742 5742
5794 5793 5790 5788 5786 5784 5782 5777 5773 5768 5764 5764 5764 5764 5764 5764 5762 5761 5759 5757 5755 5753 5751 5750 5748 5746 5743 5740 5741 5741 5738 5735 5729 5728 5735 5739 5740 5740 5740 5740 5740 5739 5738
5795 5792 5790 5787 5784 5782 5780 5776 5772 5768 5765 5764 5762 5760 5759 5759 5759 5757 5756 5753 5751 5749 5747 5745 5744 5742 5740 5737 5735 5734 5733 5732 5730 5725 5723 5728 5732 5735 5736 5736 5735 5735 5734
5794 5791 5788 5784 5781 5780 5777 5774 5771 5766 5763 5760 5758 5755 5754 5754 5753 5753 5752 5749 5747 5745 5743 5741 5739 5737 5735 5733 5731 5730 5727 5725 5723 5721 5719 5719 5721 5727 5731 5732 5731 5730 5730